{"data":{"norad_id":66833,"intl_designator":"2025-280N","name":"STARLINK-35858","alt_names":[],"object_type":"PAYLOAD","status":"ACTIVE","operator":null,"country":"US","launch_date":"2025-12-02","launch_site_code":"AFWTR","launch_vehicle":null,"mission":null,"orbit_class":"UNKNOWN","rcs_meters":null,"size_class":null,"mass_kg":null,"dimensions":null,"purposes":["comms"],"wikipedia_slug":null,"has_3d_model":false,"image_url":null,"decayed_at":null,"tle_current":{"epoch":"2026-05-25T02:36:32.182848Z","epoch_age_seconds":59492,"freshness":"FRESH","line1":"1 66833U 25280N   26145.10870582  .00004025  00000+0  34495-3 0  9990","line2":"2 66833  70.0006 141.7411 0004022 268.0109  92.0589 14.98329764 27526","mean_motion":14.98329764,"eccentricity":0.0004022,"inclination_deg":70.0006,"raan_deg":141.7411,"arg_perigee_deg":268.0109,"mean_anomaly_deg":92.0589,"bstar":0.00034495,"rev_number":2752,"period_min":96.107014263383,"perigee_km":569.26125288078,"apogee_km":574.85198862931,"semimajor_km":6950.193620755,"source":"CELESTRAK","updated_at":"2026-05-25T13:38:21.336243Z"}}}